TELECOM 2A

导读

TELECOM 2A(电信2A)是法国Télécom系列第二代通信卫星,由玛特拉·马可尼空间公司研制,于1991年12月16日在圭亚那航天中心由阿丽亚娜4 4L H10运载火箭发射升空,定位于地球同步轨道(GEO),设计寿命约10.25年,主要为民用及军事用户提供覆盖欧洲区域的通信服务,是法国卫星通信体系建设的重要组成部分。

Basic Information
目录编号:
21813
目录名称:
TELECOM 2A
国际标识:
1991-084A
轨道中心:
EARTH
卫星名称:
TELECOM 2A
卫星全名:
--
卫星状态:
在轨 (已飞行12606 天)
发射日期:
1991-12-16 UTC
国别 :
法国 (FR)
星等 :
--
Orbit Information
数据来源 国际轨道数据 AOE轨道数据
星历时间 2026-06-20T07:37:04+0800
1天前
查看轨道信息
2026-06-19T08:00:00+0800
2天前
查看轨道信息
半长轴 42539.653km 42539.395km
偏心率 0.0001181 0.0000941
轨道倾角 14.608° 14.608°
近地点辐角 223.313° 223.583°
升交点赤经 6.440° 6.449°
平近点角 132.603° 141.779°
近地点 36156.492km 36157.255km
远地点 36166.54km 36165.261km
周期 1455.294分钟 1455.280分钟
每日圈数 0.989491 0.9895
Detailed Information
使用方式:
暂无
2D Orbit Map
3D Orbit Map
Orbit Altitude Analysis Chart
Orbit Inclination Analysis Chart
Orbit Comprehensive Analysis Chart
View Comprehensive Chart